Weather observations for the past three days for
Fort Worth, Fort Worth Alliance Airport
Imperial (Metric)
Date Time (cdt) Wind (mph) Vis. (mi.) Weather Sky Cond. Temperature (ºF) Relative Humidity Wind Chill (°F) Heat Index (°F) Pressure Precipitation (in)
Air Dwpt 6 hour altimeter (in) sea level (mb) 1 hr 3 hr 6 hr
Max. Min.
17 00:53 SE 12 10.00 A Few Clouds FEW250 82.9 66.9 90 82.9 59% 86 29.83 1008.4
16 23:53 SE 10 10.00 A Few Clouds FEW250 82.9 66.9 59% 86 29.84 1008.8
16 22:53 SE 12 10.00 A Few Clouds FEW250 84.9 66 53% 87 29.83 1008.5
16 21:53 SE 12 10.00 Partly Cloudy SCT250 86 66 51% 88 29.82 1008.1
16 20:53 SE 15 10.00 Partly Cloudy FEW060 SCT250 87.1 66 50% 89 29.8 1007.5
16 19:53 SE 20 G 29 10.00 Partly Cloudy FEW060 SCT250 89.1 63 42% 90 29.79 1007.1
16 18:53 S 14 G 24 8.00 Partly Cloudy FEW060 SCT250 89.1 64 93.9 89.1 43% 90 29.79 1007.2
16 17:53 SE 16 G 26 10.00 Mostly Cloudy SCT060 BKN250 91.9 64.9 41% 94 29.79 1007.1
16 16:53 SE 15 G 25 10.00 Mostly Cloudy FEW060 BKN250 93 64.9 40% 95 29.79 1007.2
16 15:53 S 13 G 25 10.00 Mostly Cloudy FEW055 BKN250 93 66 41% 96 29.81 1007.8
16 14:53 SE 15 G 23 10.00 Mostly Cloudy FEW055 BKN250 91.9 66 43% 95 29.83 1008.4
16 13:53 S 18 10.00 Partly Cloudy FEW055 SCT250 91.9 66 43% 95 29.85 1009.2
16 12:53 S 16 G 25 10.00 Partly Cloudy FEW047 SCT250 90 66 91 78.1 45% 93 29.87 1009.8
16 11:53 S 18 10.00 A Few Clouds FEW040 FEW250 89.1 66.9 48% 92 29.89 1010.3
16 10:53 S 18 G 29 10.00 A Few Clouds FEW035 FEW250 87.1 68 53% 91 29.88 1010.1
16 09:53 S 17 10.00 A Few Clouds FEW025 FEW085 84 70 63% 88 29.88 1010.2
16 08:53 S 13 G 22 10.00 Partly Cloudy FEW020 FEW065 SCT085 81 73 77% 86 29.89 1010.6
16 07:53 S 14 10.00 Mostly Cloudy FEW017 SCT065 BKN080 79 72 79% 82 29.89 1010.6
16 06:53 S 9 10.00 Mostly Cloudy SCT070 BKN080 BKN250 78.1 71.1 82 77 79% 80 29.87 1010.0
16 05:53 S 9 10.00 A Few Clouds FEW250 77 71.1 82% 79 29.85 1009.2
16 04:53 S 13 10.00 Fair CLR 78.1 71.1 79% 80 29.83 1008.4
16 03:53 S 16 G 24 10.00 Fair CLR 80.1 70 71% 83 29.84 1008.9
16 02:53 S 14 10.00 Fair CLR 80.1 68 67% 83 29.85 1008.9
16 01:53 SE 12 10.00 Fair CLR 81 66 61% 83 29.85 1009.0
16 00:53 SE 9 10.00 A Few Clouds FEW250 81 64.9 90 81 58% 83 29.87 1009.8
15 23:53 SE 8 10.00 A Few Clouds FEW250 82 64 55% 84 29.87 1009.6
15 22:53 SE 8 10.00 A Few Clouds FEW250 84 64 51% 85 29.86 1009.5
15 21:53 SE 9 10.00 A Few Clouds FEW250 84.9 64 50% 86 29.86 1009.3
15 20:53 S 15 10.00 A Few Clouds FEW060 FEW250 86 63 46% 87 29.84 1008.8
15 19:53 SE 18 10.00 Partly Cloudy FEW065 SCT250 89.1 64 43% 90 29.83 1008.5
15 18:53 S 18 10.00 Partly Cloudy FEW060 SCT250 90 64.9 93 90 44% 92 29.83 1008.5
15 17:53 S 16 G 22 10.00 Partly Cloudy FEW060 SCT250 91 64.9 42% 93 29.83 1008.5
15 16:53 S 15 G 22 10.00 Partly Cloudy FEW060 SCT250 91.9 66 43% 95 29.84 1008.9
15 15:53 SE 14 G 22 10.00 Partly Cloudy FEW055 SCT250 91.9 66.9 44% 95 29.86 1009.4
15 14:53 S 14 G 20 10.00 A Few Clouds FEW055 91 66.9 45% 94 29.88 1010.0
15 13:53 Vrbl 5 10.00 A Few Clouds FEW050 91 66 44% 94 29.89 1010.5
15 12:53 Vrbl 6 10.00 Partly Cloudy FEW040 SCT250 90 66.9 90 73 47% 93 29.91 1011.3
15 11:53 S 9 G 21 10.00 Partly Cloudy FEW030 SCT250 88 66.9 50% 91 29.93 1011.8
15 10:53 S 10 10.00 A Few Clouds FEW030 FEW250 87.1 66.9 51% 90 29.94 1012.3
15 09:53 S 7 10.00 A Few Clouds FEW250 84.9 66.9 55% 88 29.96 1012.7
15 08:53 S 8 10.00 A Few Clouds FEW250 82 66.9 60% 85 29.96 1012.8
15 07:53 Calm 10.00 A Few Clouds FEW250 77 68 74% 79 29.96 1012.9
15 06:53 Calm 10.00 A Few Clouds FEW250 73 66 81 72 79% 29.97 1013.2
15 05:53 Calm 10.00 A Few Clouds FEW250 77 66 69% 79 29.96 1012.7
15 04:53 Calm 10.00 Fair CLR 77 66 69% 79 29.94 1012.2
15 03:53 Calm 10.00 Fair CLR 78.1 66 67% 80 29.93 1011.9
15 02:53 SE 3 10.00 Fair CLR 78.1 66 67% 80 29.93 1011.7
15 01:53 SE 6 10.00 Fair CLR 79 64.9 62% 81 29.94 1012.0
15 00:53 SE 5 10.00 Fair CLR 81 64.9 93.9 81 58% 83 29.95 1012.5
14 23:53 SE 7 10.00 Fair CLR 82.9 64 53% 84 29.96 1012.7
14 22:53 SE 8 10.00 Fair CLR 82.9 64 53% 84 29.95 1012.5
14 21:53 SE 7 10.00 Fair CLR 86 62.1 45% 87 29.93 1011.6
14 20:53 SE 8 10.00 A Few Clouds FEW250 88 60.1 39% 88 29.91 1011.2
14 19:53 E 6 10.00 Fair CLR 91.9 63 38% 93 29.9 1010.8
14 18:53 Vrbl 3 10.00 Fair CLR 93.9 63 95 90 36% 95 29.9 1010.8
14 17:53 Calm 10.00 Fair CLR 93.9 60.1 32% 94 29.9 1010.9
14 16:53 SE 9 10.00 Fair CLR 93.9 64 37% 96 29.92 1011.6
14 15:53 SE 9 10.00 A Few Clouds FEW040 93.9 64 37% 96 29.93 1011.9
14 14:53 Vrbl 7 10.00 A Few Clouds FEW040 93 64 38% 95 29.95 1012.5
14 13:53 Calm 10.00 A Few Clouds FEW040 91.9 64 40% 94 29.96 1012.9
14 12:53 S 7 10.00 A Few Clouds FEW040 91 66 91 75 44% 94 29.99 1013.7
14 11:53 S 8 10.00 A Few Clouds FEW035 89.1 66.9 48% 92 30 1014.1
14 10:53 SW 8 9.00 Fair CLR 86 68 55% 89 30 1014.2
14 09:53 S 9 9.00 A Few Clouds FEW250 84.9 69.1 59% 89 30.01 1014.4
14 08:53 S 6 10.00 A Few Clouds FEW250 81 68 65% 84 30.01 1014.5
14 07:53 S 9 10.00 A Few Clouds FEW250 78.1 68 71% 80 29.98 1013.7
14 06:53 S 9 10.00 A Few Clouds FEW250 73.9 66.9 80.1 73 79% 29.95 1012.7
14 05:53 S 6 10.00 Partly Cloudy SCT250 73.9 66.9 79% 29.96 1012.8
14 04:53 E 3 10.00 Partly Cloudy SCT250 73.9 68 82% 29.95 1012.6
14 03:53 N 7 10.00 Partly Cloudy SCT250 75 66.9 76% 76 29.97 1013.3
14 02:53 SE 3 10.00 Partly Cloudy SCT250 79 66 65% 81 29.95 1012.6
14 01:53 S 3 10.00 Partly Cloudy SCT250 79 66.9 67% 81 29.95 1012.5
Date Time (cdt) Wind (mph) Vis. (mi.) Weather Sky Cond. Air Dwpt Max. Min. Relative Humidity Wind Chill (°F) Heat Index (°F) altimeter (in) sea level (mb) 1 hr 3 hr 6 hr
6 hour
Temperature (ºF) Pressure Precipitation (in)